Regional Weather Roundup
Issued by NWS

Home | Current Version | Previous Version | Graphics & Text | Print | Product List | Glossary On
Versions: 1 2 3 4 5 6 7 8 9 10 11 12 13 14 15 16 17 18 19 20 21 22 23 24 25 26 27 28 29 30 31 32 33 34 35 36 37 38 39 40 41 42 43 44 45 46 47 48 49 50
000
ASUS43 KLSX 201507
RWRMO

WEATHER SUMMARY FOR MISSOURI
NATIONAL WEATHER SERVICE SPRINGFIELD MO
1000 AM CDT WED AUG 20 2014

NOTE: "FAIR" INDICATES FEW OR NO CLOUDS BELOW 12,000 FEET WITH NO
       SIGNIFICANT WEATHER AND/OR OBSTRUCTIONS TO VISIBILITY.
       CURRENT SKY AND/OR WEATHER CONDITIONS ARE NOT AVAILABLE FOR
       CHILLICOTHE AND FARMINGTON.

MOZ001>031-035>038-043-044-053-054-201600-
...NORTHERN AND WESTERN MISSOURI...

CITY           SKY/WX    TMP DP  RH WIND       PRES   REMARKS
KANSAS CTY INT MOSUNNY   82  72  71 SW15      29.88S
KANSAS C DTWN  SUNNY     86  70  58 SW12G20   29.87S HX  90
LEE`S SUMMIT   SUNNY     82  72  71 SW12      29.90S
ST JOSEPH      SUNNY     80  72  76 S9        29.86S
CHILLICOTHE      N/A     79  73  82 E3        29.91R
KIRKSVILLE     CLOUDY    74  68  81 CALM      29.93R

$$
MOZ066>068-077>081-088>096-101>105-201600-
...SOUTHWEST MISSOURI...

CITY           SKY/WX    TMP DP  RH WIND       PRES   REMARKS
SPRINGFIELD    SUNNY     85  68  56 SW14      29.98R
JOPLIN         SUNNY     84  70  62 SW16      29.96R

$$
MOZ032>034-039>042-045>050-055>058-069>072-201600-
...CENTRAL MISSOURI...

CITY           SKY/WX    TMP DP  RH WIND       PRES   REMARKS
COLUMBIA       CLOUDY    79  73  82 SW8       29.94R
JEFFERSON CITY CLOUDY    81  72  74 SW6       29.92R
ROLLA          PTSUNNY   80  70  71 SW8       29.96R
SEDALIA        PTSUNNY   81  72  74 SW12      29.93R
WHITEMAN AFB   MOSUNNY   81  63  54 SW14      29.90S
OSAGE BEACH    PTSUNNY   82  72  69 SW9       29.95R

$$
MOZ051-052-059>065-201600-
...EAST CENTRAL MISSOURI...

CITY           SKY/WX    TMP DP  RH WIND       PRES   REMARKS
ST LOUIS INTL  CLOUDY    81  73  76 S7        29.93F
SPIRIT OF STL  CLOUDY    82  73  74 CALM      29.91S
ST CHARLES     CLOUDY    79  73  82 VRB3      29.92R

$$
MOZ072>076-082>087-097>100-106>115-201600-
...SOUTH CENTRAL AND SOUTHEAST MISSOURI...

CITY           SKY/WX    TMP DP  RH WIND       PRES   REMARKS
CAPE GIRARDEAU CLOUDY    80  74  81 SW3       29.96R
FARMINGTON     MOSUNNY   82  72  69 CALM      30.00R
POPLAR BLUFF   SUNNY     83  73  72 SW7       29.97R
WEST PLAINS    SUNNY     83  70  64 W10       30.02R

$$



USA.gov is the U.S. government's official web portal to all federal, state and local government web resources and services.